TimeEST,TemperatureF,Dew PointF,Humidity,Sea Level PressureIn,VisibilityMPH,Wind Direction,Wind SpeedMPH,Gust SpeedMPH,PrecipitationIn,Events,Conditions,WindDirDegrees,DateUTC
12:53 AM,30.0,12.0,47,29.95,10.0,SW,10.4,-,N/A,,Partly Cloudy,220,2014-01-31 05:53:00
1:53 AM,30.0,12.9,49,29.95,10.0,SW,8.1,-,N/A,,Partly Cloudy,220,2014-01-31 06:53:00
2:53 AM,30.0,12.9,49,29.97,10.0,SW,9.2,-,N/A,,Clear,220,2014-01-31 07:53:00
3:53 AM,30.0,12.9,49,29.99,10.0,SW,8.1,-,N/A,,Clear,220,2014-01-31 08:53:00
4:53 AM,30.0,12.9,49,30.01,10.0,WSW,6.9,-,N/A,,Clear,240,2014-01-31 09:53:00
5:53 AM,30.0,14.0,51,30.03,10.0,SW,5.8,-,N/A,,Clear,220,2014-01-31 10:53:00
6:53 AM,30.0,15.1,54,30.04,10.0,SW,4.6,-,N/A,,Clear,220,2014-01-31 11:53:00
7:53 AM,30.0,16.0,56,30.06,10.0,SW,3.5,-,N/A,,Overcast,230,2014-01-31 12:53:00
8:53 AM,28.9,17.1,61,30.09,10.0,WNW,3.5,-,N/A,,Mostly Cloudy,300,2014-01-31 13:53:00
9:53 AM,30.0,17.1,59,30.10,10.0,West,4.6,-,N/A,,Mostly Cloudy,270,2014-01-31 14:53:00
10:53 AM,30.9,18.0,59,30.12,10.0,WSW,5.8,-,N/A,,Overcast,240,2014-01-31 15:53:00
11:53 AM,32.0,18.0,56,30.13,7.0,WSW,9.2,-,N/A,,Overcast,250,2014-01-31 16:53:00
12:53 PM,30.9,21.9,69,30.12,9.0,WNW,6.9,-,0.00,,Overcast,300,2014-01-31 17:53:00
1:53 PM,30.0,23.0,75,30.12,7.0,West,4.6,-,0.00,,Overcast,260,2014-01-31 18:53:00
2:41 PM,30.0,24.1,79,30.10,2.0,West,6.9,-,0.00,Snow,Light Snow,280,2014-01-31 19:41:00
2:53 PM,30.0,24.1,79,30.12,1.8,WSW,4.6,-,0.00,Snow,Light Snow,240,2014-01-31 19:53:00
3:18 PM,30.0,26.1,85,30.10,2.5,WNW,3.5,-,0.00,Snow,Light Snow,300,2014-01-31 20:18:00
3:31 PM,30.0,25.0,82,30.11,4.0,WNW,3.5,-,0.00,,Haze,290,2014-01-31 20:31:00
3:53 PM,30.0,25.0,82,30.13,4.0,Calm,Calm,-,0.00,Snow,Light Snow,0,2014-01-31 20:53:00
4:53 PM,30.0,25.0,82,30.12,6.0,Calm,Calm,-,0.00,,Haze,0,2014-01-31 21:53:00
5:53 PM,28.9,25.0,85,30.12,6.0,NNE,3.5,-,N/A,,Mostly Cloudy,30,2014-01-31 22:53:00
6:53 PM,28.9,25.0,85,30.13,7.0,East,3.5,-,N/A,,Overcast,80,2014-01-31 23:53:00
7:53 PM,28.9,26.1,89,30.12,6.0,ESE,5.8,-,N/A,,Overcast,110,2014-02-01 00:53:00
8:53 PM,30.0,26.1,85,30.11,6.0,East,4.6,-,N/A,,Overcast,100,2014-02-01 01:53:00
9:53 PM,30.0,26.1,85,30.11,6.0,East,4.6,-,N/A,,Overcast,100,2014-02-01 02:53:00
10:53 PM,30.0,26.1,85,30.10,6.0,East,5.8,-,N/A,,Overcast,100,2014-02-01 03:53:00
11:53 PM,30.0,27.0,88,30.07,5.0,SE,8.1,-,N/A,,Overcast,130,2014-02-01 04:53:00